Вернуться в каталог

COSMOS 2013

АктивенВоенныеLEO
NORAD 19907·PAYLOAD·🇷🇺 Russia

Запущен Mar 24, 1989 с Plesetsk Cosmodrome

Loading…

Ближайшие Пролёты (ближайшие 24 часа)

TLE

СвежийSource: Space-Track

Эпоха: Sep 14, 2026, 10:44 UTC

1 19907U 89025F   26257.44734185 -.00000030  00000-0 -91812-4 0  9998
2 19907  74.0065 248.3354 0010357 243.4769 190.2135 12.48179023707585

Отслеживайте COSMOS 2013 в реальном времени с AllMySat

Download on the App Store